Terminal Aerodrome Forecast
Issued by NWS Omaha/Valley, NE

Home | Current Version | Previous Version | Text Only | Print | Product List | Glossary On
Versions: 1 2 3 4 5 6 7 8 9 10 11 12 13 14 15 16 17 18 19 20 21 22 23 24 25 26 27 28 29 30 31 32 33
000
FTUS43 KOAX 161734
TAFLNK
TAF
KLNK 161734Z 1618/1718 17006KT P6SM SKC
     FM170200 VRB03KT P6SM BKN035
     FM171100 VRB03KT 4SM BR FEW250
     FM171200 VRB03KT 2SM BR SCT250
     FM171300 VRB03KT 4SM BR FEW250
     FM171500 13006KT P6SM SKC=

USA.gov is the U.S. government's official web portal to all federal, state and local government web resources and services.